#
# The Tor Project
#
# URL: https://metrics.torproject.org/bandwidth.csv?start=2014-10-09&end=2024-01-07
#
date,advbw,bwhist
2014-10-09,101.006421016,45.892194152
2014-10-10,101.346435904,47.042454448
2014-10-11,101.426382144,47.883323648
2014-10-12,102.266905136,46.779304832
2014-10-13,101.561533376,46.810958648
2014-10-14,101.142016912,46.48977074
2014-10-15,100.71857624,45.60669206
2014-10-16,101.947806928,46.740464056
2014-10-17,103.410251472,47.218210728
2014-10-18,103.410486104,47.325603524
2014-10-19,103.895341512,46.755115976
2014-10-20,103.668408496,47.024938032
2014-10-21,103.648055504,47.081309716
2014-10-22,103.526357072,46.88007598
2014-10-23,103.80081592,46.450076076
2014-10-24,104.71852296,47.57498382
2014-10-25,105.398937488,47.763049252
2014-10-26,106.320030584,47.235245428
2014-10-27,105.80522908,48.146742212
2014-10-28,105.745169528,47.6492815
2014-10-29,105.203411504,47.315346324
2014-10-30,104.953559008,47.261991188
2014-10-31,105.320561768,48.343418192
2014-11-01,106.368437416,49.20550012
2014-11-02,107.223975864,48.36315306
2014-11-03,106.460506392,48.056688532
2014-11-04,107.083589056,47.9961351
2014-11-05,106.241078064,47.935234628
2014-11-06,105.637257752,47.680566024
2014-11-07,105.727978368,47.828801456
2014-11-08,105.78334944,49.101119932
2014-11-09,105.495231616,47.349533144
2014-11-10,103.95706288,47.380891252
2014-11-11,103.236772264,47.265094996
2014-11-12,102.595774096,47.221189456
2014-11-13,103.845072496,46.725689112
2014-11-14,104.275896632,47.16432614
2014-11-15,104.93154912,48.366200548
2014-11-16,105.369556064,47.925128136
2014-11-17,104.634131976,47.566786284
2014-11-18,104.213310432,47.031482336
2014-11-19,103.24639788,47.077050892
2014-11-20,104.04629092,46.590475936
2014-11-21,104.706784072,47.108802564
2014-11-22,105.609278808,47.776331996
2014-11-23,105.635322728,47.080439824
2014-11-24,105.233702768,47.405225572
2014-11-25,105.973145152,46.981565916
2014-11-26,106.225006112,46.569495168
2014-11-27,104.87952776,46.090124732
2014-11-28,104.208661784,47.333933976
2014-11-29,105.324953,48.168799204
2014-11-30,106.007649176,47.052291044
2014-12-01,106.293019888,47.660930872
2014-12-02,106.976258248,47.341783136
2014-12-03,106.941318416,47.675534024
2014-12-04,108.342715912,47.370089876
2014-12-05,109.913706768,47.35789698
2014-12-06,110.724022688,47.648984376
2014-12-07,111.071975056,47.14599798
2014-12-08,111.07952348,46.816189848
2014-12-09,109.809644784,46.843529912
2014-12-10,108.645780552,46.4870615
2014-12-11,108.162603736,46.741231568
2014-12-12,107.981370496,46.791807172
2014-12-13,108.171996584,48.016647348
2014-12-14,106.913535136,47.15690774
2014-12-15,107.966541256,47.30826924
2014-12-16,109.867914528,48.409575512
2014-12-17,110.486389664,48.690683312
2014-12-18,109.476993416,49.473686168
2014-12-19,110.438151256,49.527955772
2014-12-20,110.307240424,49.344887088
2014-12-21,109.112563712,49.068605888
2014-12-22,108.442762784,50.430611784
2014-12-23,110.42227616,50.412723328
2014-12-24,110.046872368,48.815905132
2014-12-25,108.927684776,47.825475976
2014-12-26,109.218664576,49.636847876
2014-12-27,108.001723616,49.031579836
2014-12-28,108.670864488,50.085754056
2014-12-29,109.52452388,51.703962512
2014-12-30,110.656868664,51.221958104
2014-12-31,108.72473316,49.471341496
2015-01-01,109.567695384,49.092759916
2015-01-02,110.587403936,51.27685792
2015-01-03,110.087110848,52.586347976
2015-01-04,111.74913496,52.01920022
2015-01-05,111.690906792,52.327710136
2015-01-06,112.167541056,52.399857776
2015-01-07,112.31902872,52.438114724
2015-01-08,111.237325072,52.3336149
2015-01-09,110.608390168,52.311168328
2015-01-10,110.625413696,52.697392536
2015-01-11,110.64592812,52.55931912
2015-01-12,110.209639864,52.32473796
2015-01-13,109.700606096,51.3671507
2015-01-14,109.53686384,52.0059381
2015-01-15,109.414595752,52.45037664
2015-01-16,110.855103736,53.174579768
2015-01-17,111.715927928,53.897567972
2015-01-18,111.371084328,53.064764256
2015-01-19,111.044262384,52.526494148
2015-01-20,113.447509616,52.023868812
2015-01-21,113.666792944,52.75746514
2015-01-22,113.731934576,53.733358624
2015-01-23,115.914454528,55.64843616
2015-01-24,116.976282064,57.134454704
2015-01-25,116.809327144,56.702227624
2015-01-26,117.044251432,56.56560408
2015-01-27,117.219671752,55.414882636
2015-01-28,116.019284024,54.2927238
2015-01-29,116.489956632,53.435437584
2015-01-30,115.678259904,54.806230988
2015-01-31,116.992013784,56.497409904
2015-02-01,118.73145884,56.485508912
2015-02-02,118.869610544,56.406184624
2015-02-03,120.77161632,55.82433334
2015-02-04,121.310163112,56.361080516
2015-02-05,120.142807112,56.232673504
2015-02-06,119.807661032,52.580464148
2015-02-07,119.986149976,55.163309128
2015-02-08,120.22445196,55.345784328
2015-02-09,119.870014616,56.860805328
2015-02-10,121.813685064,57.265040592
2015-02-11,123.005973928,56.297339192
2015-02-12,122.296265152,56.466077408
2015-02-13,123.239624304,57.760198048
2015-02-14,123.203773784,59.146762136
2015-02-15,124.481255872,58.885616068
2015-02-16,125.682510576,59.804187728
2015-02-17,124.469166696,59.089094144
2015-02-18,123.688970744,58.194762832
2015-02-19,123.788345056,57.637019608
2015-02-20,124.642295712,58.600358768
2015-02-21,125.660277392,59.70663472
2015-02-22,127.089163096,59.654499464
2015-02-23,127.236996832,60.221538056
2015-02-24,127.278934392,60.636054064
2015-02-25,128.984805616,61.008036408
2015-02-26,130.77375032,63.172043384
2015-02-27,132.09628892,64.49100692
2015-02-28,133.402237336,64.5906442
2015-03-01,132.618417784,63.344325828
2015-03-02,139.374696232,63.8484763
2015-03-03,137.473359984,57.845742668
2015-03-04,128.847256456,61.177716256
2015-03-05,133.199065824,60.599444944
2015-03-06,134.123057896,61.859596652
2015-03-07,135.298961264,63.870091692
2015-03-08,135.485573576,63.211164284
2015-03-09,138.211334272,63.867361144
2015-03-10,136.010022784,60.053334396
2015-03-11,130.099117048,62.1320748
2015-03-12,131.24650708,63.635927824
2015-03-13,135.299045544,65.272998684
2015-03-14,136.443034576,64.746223384
2015-03-15,135.594956456,64.869712436
2015-03-16,135.868708304,66.403776024
2015-03-17,136.716523616,66.626033772
2015-03-18,137.330623328,65.986672004
2015-03-19,134.910735328,67.308826844
2015-03-20,132.50651692,64.506616764
2015-03-21,130.371430976,64.22413754
2015-03-22,131.039688144,62.507955856
2015-03-23,129.922876784,62.946073828
2015-03-24,127.095827416,62.234468284
2015-03-25,126.312048,61.278343164
2015-03-26,124.829830032,59.298111368
2015-03-27,122.935186376,59.461178844
2015-03-28,121.75929852,57.616530564
2015-03-29,121.328266648,58.456490856
2015-03-30,121.247521712,58.178049632
2015-03-31,119.92552056,57.336951104
2015-04-01,122.450074512,58.732093776
2015-04-02,123.652920184,58.933056892
2015-04-03,124.091955272,59.250163008
2015-04-04,124.215479728,57.843777668
2015-04-05,122.115733744,50.959500712
2015-04-06,118.487067168,55.895639956
2015-04-07,121.343173472,57.46856442
2015-04-08,122.264664416,58.22162794
2015-04-09,123.206482176,56.91612692
2015-04-10,122.77901672,57.555092988
2015-04-11,123.803941824,58.023566632
2015-04-12,123.507411936,57.913811888
2015-04-13,123.185695584,58.394218268
2015-04-14,124.122168936,58.604987012
2015-04-15,123.978100888,57.888505588
2015-04-16,122.468874456,57.94183738
2015-04-17,122.079336136,58.653228644
2015-04-18,121.658187336,59.71058486
2015-04-19,122.900291976,59.526461912
2015-04-20,123.468652008,59.597110592
2015-04-21,124.75227092,59.7861427
2015-04-22,124.886832872,61.671547768
2015-04-23,124.907025984,60.910171612
2015-04-24,123.97071292,61.652405868
2015-04-25,126.404958368,69.50668344
2015-04-26,130.151635184,67.710939912
2015-04-27,130.058290304,66.53926594
2015-04-28,129.951027608,66.648166096
2015-04-29,130.88825468,65.944022696
2015-04-30,129.909066832,58.644402772
2015-05-01,126.021973632,56.071746116
2015-05-02,123.31711492,55.808479068
2015-05-03,122.73590148,55.328454676
2015-05-04,121.869651232,55.85703438
2015-05-05,120.400410312,54.779258028
2015-05-06,120.926491296,54.519984236
2015-05-07,119.883193264,53.638452084
2015-05-08,118.32170392,54.315767756
2015-05-09,118.77990336,54.51840714
2015-05-10,118.235585552,53.384846068
2015-05-11,116.94411124,54.36449148
2015-05-12,117.170662888,53.7531459
2015-05-13,117.571761184,55.35736136
2015-05-14,117.863515792,56.343984444
2015-05-15,117.417710232,55.448994756
2015-05-16,117.206810864,55.112031608
2015-05-17,115.562775056,53.765272928
2015-05-18,114.407299848,54.830784296
2015-05-19,115.358311648,55.028047512
2015-05-20,115.669268688,54.574871104
2015-05-21,114.508914384,55.252147864
2015-05-22,114.960039976,54.988473872
2015-05-23,116.121352536,55.2726391
2015-05-24,116.052166184,54.635873752
2015-05-25,116.50661956,56.499341296
2015-05-26,122.158012192,55.549299768
2015-05-27,124.47150204,55.290410908
2015-05-28,125.283669104,55.484169684
2015-05-29,126.402587528,55.996305044
2015-05-30,127.970048688,55.744867268
2015-05-31,128.659538768,54.884111128
2015-06-01,128.524841056,54.801593504
2015-06-02,129.068427272,55.185335688
2015-06-03,129.192916992,55.133038972
2015-06-04,129.853674224,55.444415272
2015-06-05,129.94319796,54.674091012
2015-06-06,130.784089288,53.968427128
2015-06-07,131.092834832,55.035048336
2015-06-08,130.647168832,55.877520148
2015-06-09,129.729329672,53.95344912
2015-06-10,129.780516592,53.16340762
2015-06-11,129.940312424,53.243522044
2015-06-12,130.257306008,53.367579408
2015-06-13,128.672898696,53.486496084
2015-06-14,128.26179788,54.676562376
2015-06-15,129.1082016,54.508100176
2015-06-16,128.836727944,53.498876268
2015-06-17,128.67315652,54.255340756
2015-06-18,129.075725776,53.006831344
2015-06-19,128.39044636,52.868142836
2015-06-20,128.46400512,52.8675542
2015-06-21,129.57667788,52.608171476
2015-06-22,127.709723632,53.03269736
2015-06-23,127.826899936,53.14544792
2015-06-24,129.466233168,52.14672182
2015-06-25,129.610715776,51.636496884
2015-06-26,130.145947784,53.463247108
2015-06-27,131.682035264,53.0683756
2015-06-28,132.187144208,52.197890336
2015-06-29,130.40975496,54.0890021
2015-06-30,134.105455696,53.577174896
2015-07-01,133.201243688,52.500958492
2015-07-02,133.608826792,52.763155084
2015-07-03,133.89901284,52.820140912
2015-07-04,134.332681576,52.402051072
2015-07-05,133.328795744,52.502158692
2015-07-06,133.032797032,55.204467076
2015-07-07,133.371718408,55.012000508
2015-07-08,132.663695256,52.993927172
2015-07-09,130.98819316,53.209048504
2015-07-10,130.744877144,53.277853424
2015-07-11,131.221374608,52.999599504
2015-07-12,132.458742792,53.855576892
2015-07-13,133.041512464,54.70060756
2015-07-14,133.376749248,55.324826556
2015-07-15,132.592398728,54.228277664
2015-07-16,133.215082704,54.82429686
2015-07-17,133.0505228,55.769386872
2015-07-18,134.384418408,56.57617646
2015-07-19,133.709843304,56.348113828
2015-07-20,133.409872872,58.184266216
2015-07-21,132.810728896,56.687179692
2015-07-22,131.815666936,57.574404088
2015-07-23,131.861419408,57.212326256
2015-07-24,132.752294832,57.846770272
2015-07-25,132.798128472,57.881906852
2015-07-26,132.79226872,57.472629992
2015-07-27,132.94851468,58.436310916
2015-07-28,131.831897976,57.279259528
2015-07-29,131.178259184,58.251339844
2015-07-30,131.714428144,56.98518024
2015-07-31,134.114365608,57.11445298
2015-08-01,131.643073392,57.3268377
2015-08-02,132.01280816,57.044000444
2015-08-03,135.61704168,54.131325812
2015-08-04,129.954702432,53.862285328
2015-08-05,129.856176024,55.317544272
2015-08-06,134.524545136,57.488775192
2015-08-07,131.594005064,56.792163472
2015-08-08,131.424937888,57.744373836
2015-08-09,132.5484516,57.703080636
2015-08-10,131.254637176,57.914007864
2015-08-11,130.536499336,57.654527716
2015-08-12,130.638452384,59.369903696
2015-08-13,131.657961344,59.163662828
2015-08-14,132.41661852,60.018394528
2015-08-15,133.430444152,61.008887548
2015-08-16,133.803147224,59.923230428
2015-08-17,132.007827408,60.131253336
2015-08-18,131.270758984,60.773610872
2015-08-19,130.680015072,60.987456224
2015-08-20,131.546264944,61.40696684
2015-08-21,131.987062328,60.343424012
2015-08-22,131.927970832,59.964291576
2015-08-23,132.277523744,60.14946312
2015-08-24,131.481151784,59.87993994
2015-08-25,131.207960768,60.790739036
2015-08-26,133.526889152,60.30837508
2015-08-27,132.524516128,61.15493038
2015-08-28,134.193608816,63.31872214
2015-08-29,136.286668768,62.805323452
2015-08-30,136.519647288,62.763505536
2015-08-31,136.827126384,64.23027488
2015-09-01,138.133534352,63.280204992
2015-09-02,138.786846376,63.047017208
2015-09-03,139.638247976,63.289693392
2015-09-04,141.691769384,63.906343536
2015-09-05,142.371643744,63.673129412
2015-09-06,142.930835216,62.780749788
2015-09-07,142.648552768,62.908725668
2015-09-08,142.245247528,63.762024264
2015-09-09,141.310410504,63.10523958
2015-09-10,140.34509724,63.571678664
2015-09-11,139.42671528,64.323495248
2015-09-12,141.132864304,64.34773388
2015-09-13,141.273512624,64.71561564
2015-09-14,141.719676064,66.152460564
2015-09-15,144.368865952,65.507872556
2015-09-16,145.048324952,65.096592468
2015-09-17,143.539534472,62.969208968
2015-09-18,142.248735224,62.014968668
2015-09-19,143.158864368,64.428657964
2015-09-20,144.581939904,64.365384692
2015-09-21,143.318790672,64.534285408
2015-09-22,142.758212984,64.278816596
2015-09-23,143.68121744,63.858411412
2015-09-24,143.78169272,63.721697868
2015-09-25,143.657352128,63.923556348
2015-09-26,145.47999324,64.305575336
2015-09-27,144.812100048,64.172601444
2015-09-28,142.281639872,65.09664826
2015-09-29,142.28979572,64.475670856
2015-09-30,142.580806384,64.00577198
2015-10-01,143.254327416,63.905491448
2015-10-02,144.2044168,65.148613836
2015-10-03,145.321775816,66.046968044
2015-10-04,145.98281368,65.360610252
2015-10-05,144.963305896,65.449796128
2015-10-06,143.096394224,64.567814536
2015-10-07,141.6899094,65.29797534
2015-10-08,143.038433096,65.2267115
2015-10-09,143.752526888,65.703155044
2015-10-10,144.325149488,65.947540664
2015-10-11,144.879756696,66.069294168
2015-10-12,142.799936136,65.280689744
2015-10-13,141.704817224,64.5095936
2015-10-14,141.467466576,63.361948504
2015-10-15,141.415038496,63.79987386
2015-10-16,141.792684248,65.34272196
2015-10-17,143.103480504,65.7921309
2015-10-18,143.226307208,64.36060202
2015-10-19,142.443643104,65.33832104
2015-10-20,142.93894608,66.041436364
2015-10-21,143.36131304,66.094562928
2015-10-22,144.147132056,64.95591632
2015-10-23,144.420450912,66.14946074
2015-10-24,146.248897424,66.873788172
2015-10-25,147.0024384,66.614119228
2015-10-26,146.801653152,68.061954604
2015-10-27,146.702181912,68.161511624
2015-10-28,146.896536312,68.284334124
2015-10-29,146.025868376,68.19450592
2015-10-30,146.376104536,68.38400068
2015-10-31,148.88059084,68.86330274
2015-11-01,150.743688904,68.991977088
2015-11-02,150.384261504,68.884583976
2015-11-03,149.080850072,67.662327224
2015-11-04,147.117137984,67.877196664
2015-11-05,147.08036368,68.60544558
2015-11-06,147.918115856,69.573976036
2015-11-07,148.518894344,70.375696828
2015-11-08,149.103383888,69.592433888
2015-11-09,148.400635248,70.19520644
2015-11-10,146.960306272,69.293374936
2015-11-11,147.513507296,69.752874804
2015-11-12,149.923978904,70.582228328
2015-11-13,150.923998328,70.38635648
2015-11-14,150.56878524,69.595636892
2015-11-15,150.527636984,70.011756768
2015-11-16,150.509524392,70.10399518
2015-11-17,150.232195488,68.987661752
2015-11-18,150.675296176,70.782081452
2015-11-19,150.867009584,71.194643704
2015-11-20,150.121712904,71.784591536
2015-11-21,150.382339968,71.822411512
2015-11-22,150.93739472,71.26841762
2015-11-23,150.571716376,70.075760376
2015-11-24,151.071430912,67.259731268
2015-11-25,,69.57421356
2015-11-26,149.256106792,68.762769068
2015-11-27,149.971147416,69.536059828
2015-11-28,150.67820276,69.097306192
2015-11-29,151.109496088,69.116045856
2015-11-30,148.438607496,67.344939064
2015-12-01,150.227081992,69.79084856
2015-12-02,152.60628572,69.532358532
2015-12-03,152.927903224,70.084210176
2015-12-04,155.338640976,69.769559212
2015-12-05,156.026031984,70.221410152
2015-12-06,155.465406448,67.883186728
2015-12-07,,70.12336878
2015-12-08,155.927798592,70.314381136
2015-12-09,156.825828592,69.371376044
2015-12-10,178.969568184,68.647873212
2015-12-11,157.196261224,71.642539784
2015-12-12,157.057374088,71.134401856
2015-12-13,157.537639848,69.861947344
2015-12-14,155.974480488,69.9561006
2015-12-15,156.316062216,70.5224305
2015-12-16,157.286350376,71.035959728
2015-12-17,157.954527208,70.255139088
2015-12-18,157.476609592,68.321745108
2015-12-19,,70.912207708
2015-12-20,158.012877584,69.887245644
2015-12-21,157.881509104,71.997078864
2015-12-22,158.908868792,71.422113572
2015-12-23,157.946026176,71.32043862
2015-12-24,157.933227992,67.944826752
2015-12-25,155.98277596,66.442902872
2015-12-26,156.48400076,69.861194216
2015-12-27,158.566526808,71.272073748
2015-12-28,159.112525296,72.66142966
2015-12-29,160.431889608,72.365937432
2015-12-30,158.632233384,70.261852584
2015-12-31,158.587872656,67.057644288
2016-01-01,157.736604872,69.916829208
2016-01-02,160.878040128,71.571088856
2016-01-03,162.323424488,70.82662644
2016-01-04,161.888790688,72.06482106
2016-01-05,165.432432264,73.144650048
2016-01-06,166.588098336,72.827887352
2016-01-07,166.03678716,73.450311724
2016-01-08,167.154975136,73.287754112
2016-01-09,167.953319624,73.972734888
2016-01-10,166.67413284,71.8878353
2016-01-11,164.215474272,72.876028748
2016-01-12,165.784683384,72.42539082
2016-01-13,165.828816992,72.67710588
2016-01-14,165.52061996,73.07930446
2016-01-15,166.536588888,72.814997036
2016-01-16,166.783423168,74.003061376
2016-01-17,166.096199096,74.621959196
2016-01-18,165.801388768,75.744011512
2016-01-19,166.01236792,72.80495278
2016-01-20,164.818732688,71.83686328
2016-01-21,163.280723496,72.045297444
2016-01-22,162.694788208,72.260561688
2016-01-23,162.645517464,73.609621244
2016-01-24,162.761055936,72.92940158
2016-01-25,162.984082392,73.935646416
2016-01-26,191.404215808,72.148314776
2016-01-27,197.779656296,73.000922016
2016-01-28,198.22897164,73.118641916
2016-01-29,199.33002972,74.288689208
2016-01-30,201.303971576,76.269261912
2016-01-31,194.64900044,75.852749516
2016-02-01,168.780399752,76.289649312
2016-02-02,171.249751616,76.021338852
2016-02-03,177.890197648,74.44719006
2016-02-04,170.64838016,74.66415736
2016-02-05,171.018016832,74.697260696
2016-02-06,171.303967352,75.9163024
2016-02-07,171.994770816,75.817672348
2016-02-08,172.15836336,76.013303912
2016-02-09,171.206031368,74.080344688
2016-02-10,169.573603528,74.614937016
2016-02-11,170.824093872,73.877474608
2016-02-12,170.387177648,74.429688596
2016-02-13,169.754836024,77.014517768
2016-02-14,170.020522088,74.553245748
2016-02-15,168.402001736,74.11756482
2016-02-16,168.829489592,73.85125698
2016-02-17,168.182216696,73.617373372
2016-02-18,168.542607904,73.103605216
2016-02-19,166.869357752,73.690352884
2016-02-20,168.146941768,75.02215862
2016-02-21,168.436338416,72.991853264
2016-02-22,165.025042904,70.893623856
2016-02-23,164.122038368,70.637302632
2016-02-24,164.771719232,71.349414184
2016-02-25,165.222635496,70.894377992
2016-02-26,166.005285376,71.52284036
2016-02-27,165.853750752,73.041122516
2016-02-28,167.072315616,74.484113448
2016-02-29,168.855243896,74.139778536
2016-03-01,170.029934752,72.569707108
2016-03-02,169.835143904,72.952566256
2016-03-03,169.61795964,72.557015208
2016-03-04,168.616715616,72.89766142
2016-03-05,169.755684464,74.479145504
2016-03-06,170.833919928,74.701735064
2016-03-07,170.481827128,72.776335424
2016-03-08,169.805708656,70.22890214
2016-03-09,167.894327568,74.795833252
2016-03-10,169.142856176,74.475959364
2016-03-11,167.153730176,75.624458664
2016-03-12,167.552407112,75.706541208
2016-03-13,165.851062424,74.806420064
2016-03-14,163.65278512,74.133730056
2016-03-15,164.575995712,73.456010476
2016-03-16,164.981236936,73.797778848
2016-03-17,164.64936324,73.133250936
2016-03-18,164.4299516,71.638463568
2016-03-19,164.483558832,75.168779764
2016-03-20,165.477665824,73.997727956
2016-03-21,164.310131992,73.586816672
2016-03-22,164.631855768,73.333599624
2016-03-23,163.918926736,72.97498932
2016-03-24,163.727209872,72.728179712
2016-03-25,163.933467768,73.378728612
2016-03-26,164.220745624,74.468366436
2016-03-27,165.41471488,73.416273472
2016-03-28,164.856709384,77.039932924
2016-03-29,166.181014224,74.36837774
2016-03-30,165.250346064,71.307031628
2016-03-31,164.761700944,70.92436586
2016-04-01,166.278029688,71.128974796
2016-04-02,166.873259432,72.120203756
2016-04-03,166.859331592,72.062844496
2016-04-04,166.487017888,71.49219154
2016-04-05,166.433497736,70.55760052
2016-04-06,167.007935496,70.537580092
2016-04-07,166.266183648,70.080921228
2016-04-08,167.498749136,70.635438104
2016-04-09,168.043617328,71.045938956
2016-04-10,168.251455064,70.430485764
2016-04-11,167.985853216,70.892068944
2016-04-12,168.02642172,68.817845208
2016-04-13,165.442134736,68.125918468
2016-04-14,165.088633968,67.826404536
2016-04-15,164.977256384,68.860960356
2016-04-16,165.672363664,70.444684636
2016-04-17,166.731391648,69.107021636
2016-04-18,166.05941888,69.415560988
2016-04-19,166.233972464,69.617731068
2016-04-20,165.608716888,70.755018312
2016-04-21,166.946880208,70.840439168
2016-04-22,167.607131752,71.05778762
2016-04-23,169.168568136,72.444961624
2016-04-24,170.017857136,72.218149088
2016-04-25,169.579458952,71.33743354
2016-04-26,169.988753616,70.3591844
2016-04-27,167.845960368,71.666072356
2016-04-28,168.74981156,71.310891936
2016-04-29,168.107529888,72.696265468
2016-04-30,168.869563664,72.398616788
2016-05-01,169.5798896,70.82097656
2016-05-02,168.782914,71.36875034
2016-05-03,169.307385384,70.995729624
2016-05-04,170.07836256,70.504917628
2016-05-05,170.834156656,71.509016028
2016-05-06,171.438970968,70.37686066
2016-05-07,171.588844576,68.927039688
2016-05-08,171.364117808,68.691922912
2016-05-09,172.165837888,68.807871972
2016-05-10,171.85610476,68.842396764
2016-05-11,169.25574792,68.546652196
2016-05-12,169.116265248,69.9566067
2016-05-13,170.945449328,70.401050672
2016-05-14,172.101478928,70.512121192
2016-05-15,172.860174024,70.090991216
2016-05-16,172.431256176,72.11245986
2016-05-17,172.63097016,68.976941
2016-05-18,169.1892652,69.32851004
2016-05-19,168.96653708,71.209876568
2016-05-20,169.759189176,70.940049848
2016-05-21,169.649178944,70.436211204
2016-05-22,168.498023552,69.671402516
2016-05-23,167.692717736,69.73284938
2016-05-24,167.922363296,69.452630096
2016-05-25,170.129956272,68.372473388
2016-05-26,170.65218308,69.405444152
2016-05-27,171.297509088,69.823073688
2016-05-28,172.051578392,71.062207444
2016-05-29,172.08698328,70.43982844
2016-05-30,171.062419848,70.6054179
2016-05-31,173.24065284,73.178285568
2016-06-01,176.825748584,72.741145092
2016-06-02,175.862966008,72.143286144
2016-06-03,176.228223784,71.75788874
2016-06-04,177.2368126,72.583969432
2016-06-05,178.23192836,72.290828404
2016-06-06,177.563101448,72.458604464
2016-06-07,177.858235008,70.909695512
2016-06-08,180.511761888,72.35749928
2016-06-09,180.72968368,70.881055684
2016-06-10,179.212106944,70.689588664
2016-06-11,179.828813112,72.08854374
2016-06-12,180.542259736,71.693115284
2016-06-13,179.07240644,72.390278452
2016-06-14,178.068930736,71.6712235
2016-06-15,179.942601848,70.93488432
2016-06-16,179.004390472,71.512214224
2016-06-17,178.898384496,71.214122072
2016-06-18,178.871883304,71.637195644
2016-06-19,178.848015736,72.885012308
2016-06-20,179.255565544,73.99253618
2016-06-21,179.339341752,72.903494464
2016-06-22,178.292226688,72.901974472
2016-06-23,181.461045256,72.041821652
2016-06-24,179.556347528,71.898092228
2016-06-25,181.618310584,72.421714156
2016-06-26,180.700086464,72.4627962
2016-06-27,179.965278312,72.608435844
2016-06-28,179.657836848,72.015871716
2016-06-29,178.894424304,72.6889702
2016-06-30,179.840329264,72.945677816
2016-07-01,181.955527152,71.921710604
2016-07-02,182.552596408,72.272515232
2016-07-03,181.433973,72.419344084
2016-07-04,182.002047248,73.620593352
2016-07-05,184.078300192,73.40206762
2016-07-06,183.816154768,74.782631912